| time (UTC) | temp C | wind direction | speed KPH | gust KPH | rain 1hr cm | rain 24hr cm | rain mn cm | humidity % | barometer mb |
| 20260505011558 | 11 | 194 | 6.4 | 19.3 | 0.00 | 0.00 | 0.00 | 77 | 1006.5 |
| 20260505011058 | 11 | 196 | 4.8 | 20.9 | 0.00 | 0.00 | 0.00 | 77 | 1006.4 |
| 20260505010554 | 11 | 196 | 3.2 | 20.9 | 0.00 | 0.00 | 0.00 | 77 | 1006.4 |
| 20260505010046 | 11 | 163 | 1.6 | 14.5 | 0.00 | 0.00 | 0.00 | 78 | 1006.3 |
| 20260505005805 | 11 | 161 | 1.6 | 11.3 | 0.00 | 0.00 | 0.00 | 77 | 1006.2 |
| 20260505005034 | 11 | 175 | 3.2 | 11.3 | 0.00 | 0.00 | 0.00 | 78 | 1006.1 |
| 20260505004528 | 11 | 194 | 4.8 | 17.7 | 0.00 | 0.00 | 0.00 | 78 | 1006.0 |
| 20260505004034 | 11 | 155 | 4.8 | 17.7 | 0.00 | 0.00 | 0.00 | 78 | 1006.0 |
| 20260505003520 | 11 | 174 | 3.2 | 11.3 | 0.00 | 0.00 | 0.00 | 78 | 1005.9 |
| 20260505003022 | 11 | 180 | 3.2 | 11.3 | 0.00 | 0.00 | 0.00 | 77 | 1005.8 |
| 20260505002746 | 11 | 176 | 3.2 | 11.3 | 0.00 | 0.00 | 0.00 | 77 | 1005.8 |
| 20260505002030 | 11 | 184 | 1.6 | 9.7 | 0.00 | 0.00 | 0.00 | 78 | 1005.7 |
| 20260505001518 | 11 | 184 | 1.6 | 8.0 | 0.00 | 0.00 | 0.00 | 78 | 1005.6 |
| 20260505001031 | 11 | 184 | 4.8 | 12.9 | 0.00 | 0.00 | 0.00 | 78 | 1005.5 |
| 20260505000519 | 11 | 197 | 6.4 | 12.9 | 0.00 | 0.00 | 0.00 | 77 | 1005.4 |
| 20260505000036 | 11 | 179 | 4.8 | 12.9 | 0.00 | 0.00 | 0.00 | 77 | 1005.4 |
| 20260504235736 | 11 | 192 | 6.4 | 12.9 | 0.00 | 0.00 | 0.00 | 76 | 1005.4 |
| 20260504235023 | 11 | 184 | 6.4 | 16.1 | 0.00 | 0.00 | 0.00 | 75 | 1005.3 |
| 20260504234518 | 11 | 161 | 4.8 | 16.1 | 0.00 | 0.00 | 0.00 | 74 | 1005.3 |
| 20260504234036 | 12 | 180 | 4.8 | 12.9 | 0.00 | 0.00 | 0.00 | 73 | 1005.1 |
| 20260504233738 | 12 | 177 | 4.8 | 12.9 | 0.00 | 0.00 | 0.00 | 72 | 1005.1 |
| 20260504233025 | 12 | 177 | 4.8 | 11.3 | 0.00 | 0.00 | 0.00 | 71 | 1005.0 |
| 20260504232518 | 12 | 166 | 4.8 | 12.9 | 0.00 | 0.00 | 0.00 | 69 | 1004.9 |
| 20260504232024 | 13 | 182 | 6.4 | 17.7 | 0.00 | 0.00 | 0.00 | 68 | 1004.8 |
| 20260504231518 | 13 | 169 | 3.2 | 17.7 | 0.00 | 0.00 | 0.00 | 65 | 1004.7 |
| 20260504231022 | 14 | 143 | 1.6 | 9.7 | 0.00 | 0.00 | 0.00 | 64 | 1004.6 |
| 20260504230517 | 14 | 161 | 1.6 | 9.7 | 0.00 | 0.00 | 0.00 | 63 | 1004.5 |
| 20260504230258 | 14 | 159 | 1.6 | 9.7 | 0.00 | 0.00 | 0.00 | 63 | 1004.5 |
| 20260504225516 | 15 | 159 | 1.6 | 8.0 | 0.00 | 0.00 | 0.00 | 61 | 1004.4 |
| 20260504225026 | 15 | 164 | 0.0 | 8.0 | 0.00 | 0.00 | 0.00 | 59 | 1004.5 |
| 20260504224516 | 15 | 163 | 1.6 | 8.0 | 0.00 | 0.00 | 0.00 | 57 | 1004.4 |
| 20260504224024 | 16 | 165 | 3.2 | 8.0 | 0.00 | 0.00 | 0.00 | 54 | 1004.3 |
| 20260504223512 | 18 | 163 | 1.6 | 9.7 | 0.00 | 0.00 | 0.00 | 49 | 1004.2 |
| 20260504223235 | 20 | 153 | 1.6 | 11.3 | 0.00 | 0.00 | 0.00 | 44 | 1004.1 |
| 20260504223002 | 21 | 174 | 4.8 | 12.9 | 0.00 | 0.00 | 0.00 | 40 | 1004.1 |
| 20260504222012 | 21 | 257 | 4.8 | 20.9 | 0.00 | 0.00 | 0.00 | 34 | 1004.0 |
| 20260504221512 | 22 | 227 | 6.4 | 30.6 | 0.00 | 0.00 | 0.00 | 33 | 1004.0 |
| 20260504221012 | 22 | 272 | 8.0 | 30.6 | 0.00 | 0.00 | 0.00 | 32 | 1004.0 |
| 20260504220512 | 22 | 239 | 6.4 | 22.5 | 0.00 | 0.00 | 0.00 | 32 | 1004.0 |
| 20260504220011 | 22 | 274 | 6.4 | 17.7 | 0.00 | 0.00 | 0.00 | 32 | 1004.0 |
| 20260504215513 | 22 | 242 | 8.0 | 22.5 | 0.00 | 0.00 | 0.00 | 33 | 1003.9 |
| 20260504215008 | 22 | 229 | 6.4 | 22.5 | 0.00 | 0.00 | 0.00 | 33 | 1004.0 |
| 20260504214508 | 22 | 256 | 4.8 | 16.1 | 0.00 | 0.00 | 0.00 | 35 | 1004.0 |
| 20260504214008 | 22 | 248 | 8.0 | 17.7 | 0.00 | 0.00 | 0.00 | 33 | 1004.0 |
| 20260504213508 | 22 | 273 | 8.0 | 20.9 | 0.00 | 0.00 | 0.00 | 33 | 1004.0 |
| 20260504213008 | 22 | 230 | 9.7 | 25.7 | 0.00 | 0.00 | 0.00 | 32 | 1004.0 |
| 20260504212508 | 22 | 260 | 8.0 | 25.7 | 0.00 | 0.00 | 0.00 | 32 | 1004.0 |
| 20260504212008 | 22 | 273 | 6.4 | 22.5 | 0.00 | 0.00 | 0.00 | 32 | 1004.0 |
| 20260504211508 | 22 | 232 | 8.0 | 25.7 | 0.00 | 0.00 | 0.00 | 33 | 1004.0 |
| 20260504211008 | 22 | 262 | 8.0 | 25.7 | 0.00 | 0.00 | 0.00 | 33 | 1004.0 |
| 20260504210504 | 22 | 238 | 6.4 | 16.1 | 0.00 | 0.00 | 0.00 | 33 | 1004.0 |
| 20260504210004 | 22 | 274 | 6.4 | 16.1 | 0.00 | 0.00 | 0.00 | 33 | 1004.0 |
| 20260504205504 | 22 | 241 | 6.4 | 22.5 | 0.00 | 0.00 | 0.00 | 34 | 1003.9 |
| 20260504205006 | 22 | 255 | 9.7 | 24.1 | 0.00 | 0.00 | 0.00 | 33 | 1003.9 |
| 20260504204505 | 22 | 273 | 11.3 | 24.1 | 0.00 | 0.00 | 0.00 | 33 | 1004.0 |
| 20260504204004 | 22 | 235 | 9.7 | 24.1 | 0.00 | 0.00 | 0.00 | 34 | 1004.0 |
| 20260504203505 | 22 | 327 | 11.3 | 30.6 | 0.00 | 0.00 | 0.00 | 33 | 1003.9 |
| 20260504203004 | 22 | 236 | 11.3 | 30.6 | 0.00 | 0.00 | 0.00 | 34 | 1003.9 |
| 20260504202505 | 22 | 261 | 11.3 | 27.4 | 0.00 | 0.00 | 0.00 | 34 | 1004.0 |
| 20260504202000 | 22 | 277 | 9.7 | 24.1 | 0.00 | 0.00 | 0.00 | 34 | 1004.0 |
| 20260504201500 | 22 | 282 | 9.7 | 24.1 | 0.00 | 0.00 | 0.00 | 34 | 1004.1 |
| 20260504201000 | 22 | 281 | 9.7 | 27.4 | 0.00 | 0.00 | 0.00 | 33 | 1004.1 |
| 20260504200500 | 22 | 259 | 8.0 | 27.4 | 0.00 | 0.00 | 0.00 | 34 | 1004.1 |
| 20260504195958 | 22 | 288 | 8.0 | 22.5 | 0.00 | 0.00 | 0.00 | 35 | 1004.1 |
| 20260504195456 | 22 | 251 | 6.4 | 22.5 | 0.00 | 0.00 | 0.00 | 34 | 1004.0 |
| 20260504194957 | 22 | 292 | 8.0 | 19.3 | 0.00 | 0.00 | 0.00 | 34 | 1004.0 |
| 20260504194454 | 22 | 296 | 6.4 | 19.3 | 0.00 | 0.00 | 0.00 | 33 | 1004.1 |
| 20260504193955 | 22 | 249 | 4.8 | 16.1 | 0.00 | 0.00 | 0.00 | 37 | 1004.1 |
| 20260504193455 | 21 | 263 | 4.8 | 16.1 | 0.00 | 0.00 | 0.00 | 36 | 1004.1 |
| 20260504193216 | 21 | 247 | 3.2 | 12.9 | 0.00 | 0.00 | 0.00 | 38 | 1004.1 |
| 20260504192452 | 20 | 254 | 1.6 | 9.7 | 0.00 | 0.00 | 0.00 | 38 | 1004.2 |
| 20260504191950 | 20 | 254 | 3.2 | 12.9 | 0.00 | 0.00 | 0.00 | 39 | 1004.3 |
| 20260504191719 | 20 | 261 | 3.2 | 12.9 | 0.00 | 0.00 | 0.00 | 39 | 1004.3 |
| 20260504191207 | 20 | 274 | 6.4 | 17.7 | 0.00 | 0.00 | 0.00 | 38 | 1004.4 |
| 20260504190438 | 20 | 277 | 6.4 | 19.3 | 0.00 | 0.00 | 0.00 | 38 | 1004.5 |
| 20260504190202 | 20 | 248 | 4.8 | 19.3 | 0.00 | 0.00 | 0.00 | 37 | 1004.5 |
| 20260504185437 | 19 | 307 | 6.4 | 25.7 | 0.00 | 0.00 | 0.00 | 38 | 1004.5 |
| 20260504184934 | 20 | 263 | 9.7 | 25.7 | 0.00 | 0.00 | 0.00 | 37 | 1004.5 |
| 20260504184659 | 20 | 219 | 8.0 | 27.4 | 0.00 | 0.00 | 0.00 | 36 | 1004.5 |
| 20260504184201 | 20 | 215 | 8.0 | 27.4 | 0.00 | 0.00 | 0.00 | 36 | 1004.5 |
| 20260504183434 | 20 | 269 | 9.7 | 27.4 | 0.00 | 0.00 | 0.00 | 35 | 1004.5 |
| 20260504182935 | 20 | 246 | 9.7 | 24.1 | 0.00 | 0.00 | 0.00 | 35 | 1004.3 |
| 20260504182434 | 20 | 264 | 11.3 | 22.5 | 0.00 | 0.00 | 0.00 | 34 | 1004.3 |
| 20260504181934 | 20 | 254 | 11.3 | 24.1 | 0.00 | 0.00 | 0.00 | 35 | 1004.3 |
| 20260504181436 | 20 | 278 | 12.9 | 24.1 | 0.00 | 0.00 | 0.00 | 35 | 1004.3 |
| 20260504180947 | 20 | 336 | 11.3 | 29.0 | 0.00 | 0.00 | 0.00 | 35 | 1004.4 |
| 20260504180433 | 20 | 234 | 9.7 | 29.0 | 0.00 | 0.00 | 0.00 | 35 | 1004.3 |
| 20260504175934 | 20 | 279 | 9.7 | 25.7 | 0.00 | 0.00 | 0.00 | 35 | 1004.3 |
| 20260504175434 | 20 | 261 | 11.3 | 33.8 | 0.00 | 0.00 | 0.00 | 36 | 1004.3 |
| 20260504174930 | 20 | 260 | 11.3 | 33.8 | 0.00 | 0.00 | 0.00 | 36 | 1004.2 |
| 20260504174431 | 20 | 240 | 8.0 | 20.9 | 0.00 | 0.00 | 0.00 | 38 | 1004.2 |
| 20260504173930 | 19 | 231 | 6.4 | 14.5 | 0.00 | 0.00 | 0.00 | 45 | 1004.2 |
| 20260504173431 | 18 | 213 | 8.0 | 19.3 | 0.00 | 0.00 | 0.00 | 46 | 1004.3 |
| 20260504172925 | 18 | 252 | 9.7 | 20.9 | 0.00 | 0.00 | 0.00 | 47 | 1004.3 |
| 20260504172424 | 18 | 230 | 9.7 | 22.5 | 0.00 | 0.00 | 0.00 | 50 | 1004.3 |
| 20260504171924 | 17 | 169 | 8.0 | 22.5 | 0.00 | 0.00 | 0.00 | 48 | 1004.4 |
| 20260504171424 | 17 | 238 | 8.0 | 24.1 | 0.00 | 0.00 | 0.00 | 51 | 1004.3 |
| 20260504170924 | 16 | 244 | 11.3 | 33.8 | 0.00 | 0.00 | 0.00 | 51 | 1004.4 |
| 20260504170424 | 16 | 201 | 11.3 | 35.4 | 0.00 | 0.00 | 0.00 | 53 | 1004.5 |
| 20260504170147 | 17 | 184 | 9.7 | 35.4 | 0.00 | 0.00 | 0.00 | 51 | 1004.5 |
| 20260504160417 | 16 | 165 | 9.7 | 19.3 | 0.00 | 0.00 | 0.00 | 59 | 1005.1 |
| 20260504150305 | 15 | 185 | 8.0 | 17.7 | 0.00 | 0.00 | 0.00 | 59 | 1005.9 |
| 20260504140659 | 13 | 185 | 6.4 | 20.9 | 0.00 | 0.00 | 0.00 | 57 | 1006.9 |
| 20260504140155 | 14 | 186 | 6.4 | 16.1 | 0.00 | 0.00 | 0.00 | 57 | 1006.9 |
| 20260504130549 | 12 | 226 | 11.3 | 22.5 | 0.00 | 0.00 | 0.00 | 57 | 1007.3 |
| 20260504120225 | 11 | 251 | 6.4 | 20.9 | 0.00 | 0.00 | 0.00 | 62 | 1008.1 |
| 20260504110452 | 8 | 245 | 6.4 | 16.1 | 0.00 | 0.00 | 0.00 | 63 | 1008.0 |
| 20260504100341 | 7 | 254 | 0.0 | 8.0 | 0.00 | 0.00 | 0.00 | 66 | 1008.0 |
| 20260504081305 | 5 | 286 | 0.0 | 4.8 | 0.00 | 0.00 | 0.00 | 65 | 1007.8 |
| 20260504080812 | 5 | 286 | 1.6 | 9.7 | 0.00 | 0.00 | 0.00 | 66 | 1007.8 |
| 20260504080253 | 5 | 287 | 1.6 | 9.7 | 0.00 | 0.00 | 0.00 | 66 | 1007.7 |
| 20260504070239 | 5 | 279 | 1.6 | 9.7 | 0.00 | 0.00 | 0.00 | 66 | 1007.7 |
| 20260504050715 | 4 | 279 | 0.0 | 4.8 | 0.00 | 0.00 | 0.00 | 71 | 1007.6 |
| 20260504050213 | 4 | 279 | 0.0 | 4.8 | 0.00 | 0.00 | 0.00 | 71 | 1007.6 |
| 20260504045713 | 4 | 280 | 0.0 | 11.3 | 0.00 | 0.00 | 0.00 | 71 | 1007.6 |
| 20260504045214 | 4 | 280 | 0.0 | 11.3 | 0.00 | 0.00 | 0.00 | 71 | 1007.6 |
| 20260504044714 | 4 | 282 | 0.0 | 6.4 | 0.00 | 0.00 | 0.00 | 72 | 1007.6 |
| 20260504044214 | 3 | 252 | 1.6 | 12.9 | 0.00 | 0.00 | 0.00 | 72 | 1007.5 |
| 20260504043713 | 3 | 252 | 1.6 | 12.9 | 0.00 | 0.00 | 0.00 | 73 | 1007.5 |
| 20260504043212 | 3 | 296 | 0.0 | 3.2 | 0.00 | 0.00 | 0.00 | 73 | 1007.4 |
| 20260504042714 | 3 | 296 | 0.0 | 3.2 | 0.00 | 0.00 | 0.00 | 73 | 1007.5 |
| 20260504042209 | 3 | 296 | 0.0 | 4.8 | 0.00 | 0.00 | 0.00 | 73 | 1007.4 |
| 20260504041709 | 3 | 296 | 0.0 | 4.8 | 0.00 | 0.00 | 0.00 | 73 | 1007.4 |
| 20260504041432 | 3 | 296 | 0.0 | 4.8 | 0.00 | 0.00 | 0.00 | 74 | 1007.4 |
| 20260504040709 | 3 | 296 | 0.0 | 4.8 | 0.00 | 0.00 | 0.00 | 74 | 1007.4 |
| 20260504040427 | 3 | 297 | 0.0 | 3.2 | 0.00 | 0.00 | 0.00 | 74 | 1007.4 |
| 20260504035710 | 3 | 298 | 0.0 | 3.2 | 0.00 | 0.00 | 0.00 | 74 | 1007.3 |
| 20260504035209 | 3 | 298 | 0.0 | 3.2 | 0.00 | 0.00 | 0.00 | 74 | 1007.2 |
| 20260504034710 | 3 | 298 | 0.0 | 3.2 | 0.00 | 0.00 | 0.00 | 74 | 1007.2 |
| 20260504034207 | 3 | 298 | 0.0 | 0.0 | 0.00 | 0.00 | 0.00 | 74 | 1007.1 |
| 20260504033707 | 3 | 297 | 0.0 | 0.0 | 0.00 | 0.00 | 0.00 | 74 | 1007.2 |
| 20260504033200 | 3 | 297 | 0.0 | 0.0 | 0.00 | 0.00 | 0.00 | 74 | 1007.1 |
| 20260504032654 | 3 | 297 | 0.0 | 0.0 | 0.00 | 0.00 | 0.00 | 74 | 1007.2 |
| 20260504032148 | 3 | 297 | 0.0 | 0.0 | 0.00 | 0.00 | 0.00 | 74 | 1007.2 |
| 20260504031642 | 3 | 297 | 0.0 | 0.0 | 0.00 | 0.00 | 0.00 | 74 | 1007.1 |
| 20260504031136 | 3 | 297 | 0.0 | 1.6 | 0.00 | 0.00 | 0.00 | 73 | 1007.2 |
| 20260504030630 | 3 | 297 | 0.0 | 1.6 | 0.00 | 0.00 | 0.00 | 73 | 1007.1 |
| 20260504030124 | 3 | 297 | 0.0 | 0.0 | 0.00 | 0.00 | 0.00 | 72 | 1007.1 |
| 20260504025619 | 3 | 297 | 0.0 | 0.0 | 0.00 | 0.00 | 0.00 | 72 | 1007.1 |
| 20260504025112 | 3 | 297 | 0.0 | 0.0 | 0.00 | 0.00 | 0.00 | 71 | 1007.0 |
| 20260504024606 | 4 | 297 | 0.0 | 0.0 | 0.00 | 0.00 | 0.00 | 71 | 1007.0 |
| 20260504024101 | 4 | 297 | 0.0 | 0.0 | 0.00 | 0.00 | 0.00 | 71 | 1007.1 |
| 20260504024040 | 4 | 297 | 0.0 | 0.0 | 0.00 | 0.00 | 0.00 | 71 | 1007.0 |
| 20260504023048 | 4 | 297 | 0.0 | 0.0 | 0.00 | 0.00 | 0.00 | 70 | 1007.1 |
| 20260504022802 | 4 | 297 | 0.0 | 0.0 | 0.00 | 0.00 | 0.00 | 69 | 1007.0 |
| 20260504022036 | 5 | 297 | 0.0 | 0.0 | 0.00 | 0.00 | 0.00 | 68 | 1007.1 |
| 20260504021530 | 5 | 297 | 0.0 | 0.0 | 0.00 | 0.00 | 0.00 | 68 | 1007.1 |
| 20260504021024 | 5 | 297 | 0.0 | 0.0 | 0.00 | 0.00 | 0.00 | 67 | 1007.1 |
| 20260504021005 | 5 | 297 | 0.0 | 0.0 | 0.00 | 0.00 | 0.00 | 66 | 1007.1 |
| 20260504020011 | 6 | 297 | 0.0 | 0.0 | 0.00 | 0.00 | 0.00 | 65 | 1007.1 |
| 20260504015504 | 6 | 297 | 0.0 | 0.0 | 0.00 | 0.00 | 0.00 | 64 | 1007.1 |
| 20260504015222 | 6 | 297 | 0.0 | 0.0 | 0.00 | 0.00 | 0.00 | 63 | 1007.1 |
| 20260504014453 | 6 | 297 | 0.0 | 0.0 | 0.00 | 0.00 | 0.00 | 61 | 1007.0 |
| 20260504013946 | 6 | 297 | 0.0 | 0.0 | 0.00 | 0.00 | 0.00 | 60 | 1007.0 |
| 20260504013442 | 7 | 297 | 0.0 | 1.6 | 0.00 | 0.00 | 0.00 | 59 | 1007.0 |
| 20260504012934 | 7 | 297 | 0.0 | 8.0 | 0.00 | 0.00 | 0.00 | 58 | 1007.0 |
| 20260504012429 | 7 | 297 | 1.6 | 8.0 | 0.00 | 0.00 | 0.00 | 58 | 1006.9 |